�������l�o���
Date,Time,MP-1(��Sv/h),MP-2(��Sv/h),MP-3(��Sv/h),MP-4(��Sv/h),MP-5(��Sv/h),MP-6(��Sv/h),MP-7(��Sv/h),MP-8(��Sv/h),����,����(m/s),���J
2019/02/06,00:00,0.785,1.168,0.807,1.495,1.079,0.446,0.796,0.753,��쐼,7.6,��
2019/02/06,00:10,0.785,1.169,0.806,1.495,1.075,0.446,0.794,0.751,��쐼,7.2,��
2019/02/06,00:20,0.786,1.168,0.809,1.496,1.075,0.447,0.797,0.754,��쐼,7.8,��
2019/02/06,00:30,0.785,1.169,0.806,1.497,1.074,0.446,0.796,0.753,��쐼,7.5,��
2019/02/06,00:40,0.784,1.167,0.808,1.496,1.074,0.447,0.795,0.754,��쐼,7.6,��
2019/02/06,00:50,0.786,1.166,0.806,1.496,1.076,0.446,0.796,0.751,�쐼,7.4,��
2019/02/06,01:00,0.785,1.164,0.807,1.496,1.075,0.447,0.795,0.753,�쐼,6.9,��
2019/02/06,01:10,0.784,1.169,0.807,1.497,1.076,0.448,0.794,0.754,�쐼,6.4,��
2019/02/06,01:20,0.786,1.168,0.807,1.497,1.074,0.448,0.795,0.752,�쐼,5.3,��
2019/02/06,01:30,0.787,1.168,0.808,1.497,1.075,0.446,0.795,0.752,�쐼,4.1,��
2019/02/06,01:40,0.785,1.167,0.809,1.496,1.075,0.447,0.797,0.752,�쐼,3.1,��
2019/02/06,01:50,0.786,1.164,0.807,1.495,1.077,0.447,0.796,0.751,��쐼,2.6,��
2019/02/06,02:00,0.784,1.167,0.807,1.498,1.075,0.446,0.796,0.753,��쐼,2.5,��
2019/02/06,02:10,0.785,1.166,0.807,1.497,1.075,0.448,0.795,0.754,��쐼,2.0,��
2019/02/06,02:20,0.786,1.168,0.805,1.496,1.075,0.447,0.794,0.755,��,1.7,��
2019/02/06,02:30,0.786,1.165,0.808,1.495,1.074,0.446,0.796,0.753,��쓌,1.4,��
2019/02/06,02:40,0.785,1.166,0.808,1.496,1.075,0.448,0.796,0.754,�쓌,1.4,��
2019/02/06,02:50,0.785,1.164,0.805,1.495,1.076,0.446,0.795,0.752,�쓌,1.1,��
2019/02/06,03:00,0.785,1.168,0.807,1.496,1.075,0.447,0.796,0.751,�쓌,1.2,��
2019/02/06,03:10,0.783,1.168,0.807,1.496,1.076,0.447,0.794,0.753,���쓌,0.8,��
2019/02/06,03:20,0.785,1.165,0.807,1.495,1.074,0.447,0.795,0.753,-,CALM,��
2019/02/06,03:30,0.786,1.164,0.807,1.496,1.077,0.448,0.793,0.753,���쓌,1.5,��
2019/02/06,03:40,0.785,1.164,0.807,1.496,1.074,0.448,0.796,0.752,��,1.2,��
2019/02/06,03:50,0.787,1.165,0.808,1.497,1.075,0.447,0.794,0.752,���쓌,0.8,��
2019/02/06,04:00,0.785,1.165,0.807,1.497,1.074,0.447,0.796,0.753,���쓌,1.4,��
2019/02/06,04:10,0.786,1.163,0.808,1.494,1.075,0.447,0.796,0.752,�쓌,0.9,��
2019/02/06,04:20,0.786,1.166,0.806,1.496,1.077,0.448,0.795,0.753,��쓌,1.1,��
2019/02/06,04:30,0.785,1.164,0.806,1.496,1.072,0.448,0.797,0.752,�쓌,1.2,��
2019/02/06,04:40,0.786,1.167,0.807,1.496,1.075,0.447,0.795,0.753,�쓌,0.8,��
2019/02/06,04:50,0.786,1.166,0.807,1.494,1.075,0.447,0.795,0.753,�쓌,1.5,��
2019/02/06,05:00,0.785,1.167,0.807,1.495,1.074,0.445,0.795,0.751,���쓌,1.5,��
2019/02/06,05:10,0.784,1.167,0.808,1.496,1.076,0.447,0.795,0.752,��쓌,1.5,��
2019/02/06,05:20,0.787,1.167,0.807,1.497,1.077,0.447,0.795,0.752,�쓌,2.0,��
2019/02/06,05:30,0.784,1.165,0.807,1.494,1.076,0.446,0.795,0.752,�쓌,1.7,��
2019/02/06,05:40,0.785,1.167,0.806,1.495,1.074,0.445,0.795,0.752,��,1.4,��
2019/02/06,05:50,0.786,1.167,0.808,1.496,1.074,0.447,0.793,0.753,��,1.5,��
2019/02/06,06:00,0.785,1.165,0.809,1.494,1.075,0.448,0.794,0.752,��,1.7,��
2019/02/06,06:10,0.787,1.167,0.806,1.496,1.075,0.448,0.795,0.753,��쓌,0.9,��
2019/02/06,06:20,0.785,1.165,0.807,1.494,1.073,0.448,0.794,0.753,��,1.1,��
2019/02/06,06:30,0.787,1.165,0.807,1.499,1.072,0.447,0.796,0.754,�쐼,0.6,��
2019/02/06,06:40,0.786,1.165,0.808,1.494,1.076,0.448,0.796,0.753,��,1.2,��
2019/02/06,06:50,0.785,1.166,0.808,1.494,1.073,0.447,0.795,0.753,��쐼,0.9,��
2019/02/06,07:00,0.785,1.166,0.807,1.495,1.075,0.448,0.797,0.753,��,0.8,��
2019/02/06,07:10,0.784,1.166,0.808,1.496,1.074,0.448,0.796,0.753,��쓌,1.2,��
2019/02/06,07:20,0.785,1.164,0.806,1.497,1.075,0.448,0.795,0.755,��,1.5,��
2019/02/06,07:30,0.785,1.168,0.806,1.496,1.075,0.447,0.796,0.754,��,1.4,��
2019/02/06,07:40,0.785,1.166,0.808,1.497,1.076,0.448,0.794,0.754,��,1.9,��
2019/02/06,07:50,0.787,1.165,0.807,1.497,1.075,0.449,0.796,0.754,��,2.5,��
2019/02/06,08:00,0.786,1.163,0.807,1.495,1.073,0.448,0.797,0.752,��,2.6,��
2019/02/06,08:10,0.788,1.165,0.809,1.497,1.075,0.447,0.796,0.752,��,1.7,��
2019/02/06,08:20,0.786,1.162,0.805,1.496,1.076,0.448,0.797,0.753,��,1.2,��
2019/02/06,08:30,0.787,1.158,0.805,1.493,1.077,0.446,0.797,0.753,��,1.2,��
2019/02/06,08:40,0.786,1.163,0.805,1.495,1.078,0.447,0.795,0.754,-,CALM,��
2019/02/06,08:50,0.789,1.164,0.807,1.500,1.077,0.448,0.795,0.754,-,CALM,��
2019/02/06,09:00,0.788,1.162,0.804,1.496,1.077,0.447,0.793,0.755,�k,0.6,��
2019/02/06,09:10,0.785,1.162,0.807,1.496,1.075,0.448,0.793,0.754,-,CALM,��
2019/02/06,09:20,0.786,1.161,0.807,1.499,1.077,0.447,0.792,0.753,���쐼,0.6,��
2019/02/06,09:30,0.788,1.160,0.808,1.498,1.076,0.449,0.791,0.752,���k��,1.1,��
2019/02/06,09:40,0.788,1.165,0.806,1.497,1.076,0.447,0.793,0.752,���k��,0.8,��
2019/02/06,09:50,0.786,1.158,0.808,1.495,1.076,0.447,0.793,0.755,�쐼,0.6,��
2019/02/06,10:00,0.787,1.162,0.807,1.498,1.076,0.448,0.792,0.753,�k��,0.6,��
2019/02/06,10:10,0.786,1.159,0.809,1.498,1.074,0.448,0.793,0.753,-,CALM,��
2019/02/06,10:20,0.789,1.163,0.804,1.498,1.076,0.447,0.793,0.755,-,CALM,�L
2019/02/06,10:30,0.788,1.163,0.808,1.497,1.078,0.447,0.793,0.755,-,CALM,�L
2019/02/06,10:40,0.788,1.161,0.808,1.500,1.077,0.447,0.796,0.753,-,CALM,�L
2019/02/06,10:50,0.788,1.163,0.809,1.498,1.077,0.449,0.797,0.753,�k��,2.0,�L
2019/02/06,11:00,0.787,1.161,0.808,1.498,1.077,0.449,0.796,0.753,���k��,1.7,�L
2019/02/06,11:10,0.790,1.163,0.810,1.496,1.075,0.448,0.797,0.754,�k��,2.6,�L
2019/02/06,11:20,0.788,1.164,0.809,1.497,1.074,0.449,0.796,0.753,�k��,3.4,�L
2019/02/06,11:30,0.788,1.165,0.808,1.500,1.077,0.449,0.798,0.755,�k�k��,3.7,�L
2019/02/06,11:40,0.790,1.162,0.810,1.497,1.076,0.450,0.797,0.755,�k�k��,4.4,�L
2019/02/06,11:50,0.787,1.163,0.810,1.498,1.076,0.450,0.798,0.754,�k,3.4,�L
2019/02/06,12:00,0.787,1.166,0.806,1.498,1.076,0.448,0.797,0.755,�k,4.3,��
2019/02/06,12:10,0.788,1.168,0.810,1.499,1.075,0.448,0.798,0.753,�k�k��,5.0,��
2019/02/06,12:20,0.788,1.166,0.811,1.498,1.077,0.450,0.798,0.753,�k�k��,3.2,��
2019/02/06,12:30,0.787,1.165,0.809,1.499,1.075,0.449,0.799,0.753,�k�k��,3.5,��
2019/02/06,12:40,0.789,1.162,0.808,1.498,1.078,0.448,0.797,0.754,�k�k��,4.0,��
2019/02/06,12:50,0.787,1.160,0.807,1.499,1.075,0.448,0.795,0.755,�k�k��,3.3,��
2019/02/06,13:00,0.786,1.159,0.807,1.497,1.076,0.449,0.796,0.754,�k,3.4,�L
2019/02/06,13:10,0.783,1.161,0.807,1.499,1.076,0.448,0.798,0.753,�k,3.6,�L
2019/02/06,13:20,0.785,1.160,0.807,1.499,1.077,0.448,0.798,0.754,�k�k��,4.0,�L
2019/02/06,13:30,0.787,1.157,0.810,1.494,1.075,0.449,0.796,0.754,�k,3.7,�L
2019/02/06,13:40,0.789,1.159,0.807,1.497,1.076,0.449,0.796,0.753,�k,3.3,�L
2019/02/06,13:50,0.788,1.158,0.809,1.497,1.076,0.450,0.796,0.755,�k,3.5,�L
2019/02/06,14:00,0.787,1.158,0.807,1.497,1.078,0.450,0.796,0.754,�k�k��,3.7,�L
2019/02/06,14:10,0.788,1.155,0.808,1.498,1.075,0.450,0.797,0.753,�k,3.6,�L
2019/02/06,14:20,0.788,1.157,0.807,1.498,1.074,0.450,0.796,0.755,�k,3.1,�L
2019/02/06,14:30,0.788,1.156,0.808,1.497,1.075,0.450,0.797,0.754,�k,3.3,�L
2019/02/06,14:40,0.789,1.158,0.808,1.497,1.075,0.449,0.796,0.754,�k,3.3,�L
2019/02/06,14:50,0.788,1.157,0.809,1.498,1.074,0.450,0.795,0.755,�k,3.3,�L
2019/02/06,15:00,0.788,1.157,0.807,1.496,1.075,0.450,0.794,0.755,�k,3.6,�L
2019/02/06,15:10,0.786,1.156,0.807,1.497,1.069,0.449,0.797,0.754,�k�k��,3.3,�L
2019/02/06,15:20,0.786,1.159,0.808,1.496,1.073,0.449,0.796,0.754,�k�k��,3.7,�L
2019/02/06,15:30,0.788,1.155,0.808,1.496,1.074,0.450,0.798,0.754,�k��,4.6,�L
2019/02/06,15:40,0.788,1.158,0.808,1.493,1.073,0.449,0.798,0.754,�k��,4.7,�L
2019/02/06,15:50,0.786,1.155,0.807,1.497,1.072,0.449,0.796,0.755,�k��,5.5,�L
2019/02/06,16:00,0.784,1.159,0.806,1.494,1.071,0.450,0.795,0.751,�k��,5.9,�L
2019/02/06,16:10,0.785,1.158,0.807,1.494,1.073,0.449,0.795,0.754,�k�k��,4.9,��
2019/02/06,16:20,0.783,1.159,0.807,1.497,1.071,0.448,0.796,0.754,�k�k��,6.5,��
2019/02/06,16:30,0.785,1.157,0.808,1.497,1.069,0.449,0.796,0.754,�k�k��,8.0,��
2019/02/06,16:40,0.786,1.158,0.806,1.493,1.070,0.448,0.794,0.754,�k�k��,8.1,��
2019/02/06,16:50,0.785,1.161,0.805,1.495,1.070,0.448,0.795,0.753,�k�k��,7.6,��
2019/02/06,17:00,0.783,1.161,0.806,1.494,1.071,0.447,0.795,0.752,�k�k��,7.3,��
2019/02/06,17:10,0.783,1.160,0.807,1.493,1.072,0.445,0.794,0.754,�k�k��,6.9,��
2019/02/06,17:20,0.783,1.161,0.807,1.496,1.070,0.448,0.796,0.753,�k�k��,6.7,��
2019/02/06,17:30,0.782,1.162,0.810,1.493,1.068,0.448,0.798,0.752,�k��,6.2,��
2019/02/06,17:40,0.784,1.161,0.806,1.495,1.072,0.446,0.796,0.752,�k�k��,6.0,��
2019/02/06,17:50,0.784,1.161,0.807,1.495,1.072,0.447,0.796,0.753,�k�k��,6.8,��
2019/02/06,18:00,0.782,1.162,0.807,1.493,1.068,0.447,0.796,0.753,�k�k��,5.8,��
2019/02/06,18:10,0.784,1.159,0.807,1.495,1.070,0.447,0.796,0.753,�k,5.6,��
2019/02/06,18:20,0.784,1.161,0.806,1.495,1.071,0.448,0.796,0.754,�k,6.0,��
2019/02/06,18:30,0.784,1.161,0.806,1.492,1.069,0.448,0.796,0.753,�k,5.2,��
2019/02/06,18:40,0.784,1.159,0.805,1.494,1.072,0.449,0.793,0.754,�k�k��,6.5,��
2019/02/06,18:50,0.784,1.158,0.808,1.494,1.072,0.448,0.795,0.753,�k�k��,5.2,��
2019/02/06,19:00,0.785,1.161,0.809,1.494,1.070,0.446,0.796,0.750,�k�k��,4.7,��
2019/02/06,19:10,0.785,1.159,0.807,1.495,1.071,0.448,0.797,0.754,�k�k��,4.4,��
2019/02/06,19:20,0.783,1.162,0.808,1.492,1.071,0.448,0.796,0.753,�k�k��,5.5,��
2019/02/06,19:30,0.785,1.158,0.807,1.494,1.071,0.448,0.796,0.752,�k�k��,5.8,��
2019/02/06,19:40,0.783,1.164,0.809,1.493,1.072,0.447,0.797,0.751,�k�k��,6.2,��
2019/02/06,19:50,0.784,1.160,0.807,1.494,1.068,0.448,0.797,0.752,�k��,6.9,��
2019/02/06,20:00,0.782,1.158,0.806,1.491,1.071,0.448,0.797,0.755,�k�k��,8.1,��
2019/02/06,20:10,0.782,1.160,0.804,1.493,1.072,0.449,0.796,0.751,�k�k��,7.8,��
2019/02/06,20:20,0.784,1.161,0.807,1.492,1.070,0.447,0.797,0.753,�k�k��,6.7,��
2019/02/06,20:30,0.781,1.158,0.805,1.494,1.070,0.448,0.796,0.752,�k�k��,6.9,��
2019/02/06,20:40,0.785,1.160,0.804,1.492,1.068,0.449,0.797,0.753,�k�k��,6.6,��
2019/02/06,20:50,0.784,1.157,0.806,1.490,1.069,0.447,0.798,0.754,�k�k��,6.4,��
2019/02/06,21:00,0.784,1.156,0.805,1.491,1.070,0.448,0.794,0.752,�k�k��,5.0,��
2019/02/06,21:10,0.783,1.155,0.806,1.491,1.069,0.446,0.796,0.753,�k��,3.9,��
2019/02/06,21:20,0.782,1.158,0.806,1.490,1.071,0.447,0.796,0.752,�k��,3.4,��
2019/02/06,21:30,0.780,1.157,0.806,1.491,1.068,0.446,0.793,0.753,�k�k��,3.2,��
2019/02/06,21:40,0.781,1.159,0.805,1.493,1.067,0.446,0.793,0.752,�k��,3.0,��
2019/02/06,21:50,0.782,1.158,0.806,1.490,1.068,0.446,0.796,0.751,���k��,2.8,��
2019/02/06,22:00,0.781,1.157,0.805,1.492,1.068,0.447,0.796,0.751,���k��,2.6,��
2019/02/06,22:10,0.781,1.157,0.805,1.494,1.070,0.447,0.793,0.753,�k��,2.2,��
2019/02/06,22:20,0.781,1.158,0.805,1.493,1.066,0.447,0.795,0.752,�k��,1.7,��
2019/02/06,22:30,0.781,1.158,0.805,1.489,1.069,0.447,0.794,0.752,���k��,3.0,��
2019/02/06,22:40,0.781,1.158,0.805,1.492,1.070,0.447,0.795,0.753,���k��,3.2,��
2019/02/06,22:50,0.781,1.156,0.805,1.492,1.067,0.446,0.792,0.753,���k��,2.6,��
2019/02/06,23:00,0.782,1.156,0.805,1.492,1.068,0.445,0.794,0.753,��,2.6,��
2019/02/06,23:10,0.781,1.158,0.805,1.490,1.069,0.447,0.794,0.752,�쐼,2.6,��
2019/02/06,23:20,0.781,1.159,0.804,1.490,1.070,0.446,0.793,0.752,���쐼,2.3,��
2019/02/06,23:30,0.781,1.156,0.804,1.491,1.068,0.446,0.794,0.752,�쐼,3.6,��
2019/02/06,23:40,0.783,1.156,0.805,1.493,1.068,0.446,0.794,0.752,�쐼,4.6,��
2019/02/06,23:50,0.784,1.157,0.804,1.492,1.065,0.447,0.794,0.750,�쐼,4.3,��
